Location: Czekanka
(50.4925°N, 19.2643°E)
Time: 00:49:47
(UTC+00:00)

CZ-2C R/B - Pass Details

Date: 23 September 2024
Orbit: 703 x 903 km, 98.2° (Epoch: 09 October)

Event Time Altitude Azimuth Distance (km) Brightness Sun altitude
Rises 00:44:36 0° 14° (NNE) 3,538 7.3 -32.7°
Reaches altitude 10° 00:47:01 10° 14° (NNE) 2,596 6.4 -32.5°
Enters shadow 00:51:48 62° 14° (NNE) 1,013 3.7 -32.0°
